This demonstration page uses our WeatherBlox Daily Observations layout. Learn more.

Left ArrowRight Arrow

Hourly Observations for June 16, 2020

Temp ( °F °C ) Dew Point ( °F °C ) Humidity (%) Winds ( mph kmh ) Pressure ( in mb ) Visibility ( mi km ) Precip ( " mm )
12:56 am 00:56 Clear 77 24.8 66 18.7 69 69 SE 12 19 30.10 1019 10 16 0.00 0.00
1:56 am 01:56 Clear 75 24 66 19.1 74 74 SE 9 15 30.10 1019 10 16 0.00 0.00
2:56 am 02:56 Clear 73 23 67 19.3 80 80 SE 9 15 30.10 1019 10 16 0.00 0.00
3:56 am 03:56 Clear 72 22.4 67 19.3 83 83 SE 8 13 30.11 1020 10 16 0.00 0.00
4:56 am 04:56 Clear 72 22.3 67 19.4 84 84 SE 9 15 30.11 1020 10 16 0.00 0.00
5:56 am 05:56 Sunny 72 22 68 20.1 89 89 SE 9 15 30.13 1020 10 16 0.00 0.00
6:56 am 06:56 Sunny 73 22.6 69 20.7 89 89 SE 12 19 30.13 1020 10 16 0.00 0.00
7:56 am 07:56 Sunny 75 24.1 69 20.8 82 82 SSE 14 22 30.13 1020 10 16 0.00 0.00
8:56 am 08:56 Sunny 78 25.7 69 20.7 74 74 SSE 15 24 30.13 1020 10 16 0.00 0.00
9:56 am 09:56 Sunny 81 27.3 69 20.8 68 68 SE 14 22 30.11 1020 10 16 0.00 0.00
10:56 am 10:56 Sunny 84 28.8 70 21 63 63 undefined N/A 30.11 1020 10 16 0.00 0.00
11:56 am 11:56 Sunny 86 30 70 21.1 59 59 undefined N/A 30.11 1020 10 16 0.00 0.00
12:56 pm 12:56 Sunny 88 31 70 20.9 55 55 SSE 20 31 30.08 1019 10 16 0.00 0.00
1:56 pm 13:56 Sunny 89 31.4 68 20 51 51 SSE 18 30 30.06 1018 10 16 0.00 0.00
2:56 pm 14:56 Sunny 90 32.1 67 19.6 48 48 SSE 16 26 30.04 1017 10 16 0.00 0.00
3:56 pm 15:56 Mostly Sunny 90 32.2 66 18.7 45 45 SSE 18 30 30.03 1017 10 16 0.00 0.00
4:56 pm 16:56 Sunny 91 32.5 65 18.3 43 43 SSE 20 31 30.00 1016 10 16 0.00 0.00
5:56 pm 17:56 Sunny 90 32 64 17.8 43 43 SSE 16 26 29.98 1015 10 16 0.00 0.00
6:56 pm 18:56 Sunny 88 31.1 63 17 43 43 SE 17 28 29.98 1015 10 16 0.00 0.00
7:56 pm 19:56 Sunny 86 29.9 64 17.7 48 48 SE 14 22 29.96 1015 10 16 0.00 0.00
8:56 pm 20:56 Sunny 83 28.1 65 18.5 56 56 SE 14 22 29.98 1015 10 16 0.00 0.00
9:56 pm 21:56 Clear 80 26.7 66 18.8 62 62 ESE 13 20 29.99 1016 10 16 0.00 0.00
10:56 pm 22:56 Clear 79 26.2 68 20 69 69 SE 16 26 30.01 1016 10 16 0.00 0.00
11:56 pm 23:56 Clear 78 25.4 67 19.7 71 71 SE 15 24 30.00 1016 10 16 0.00 0.00

Powered by AerisWeather